Weather History for Gwinn, MI

Change the Weather History Date:

Friday, May 10, 2013

  Actual Average (KESC) Record (KESC)
Temperature  
Mean Temperature 36 °F -  
Max Temperature 41 °F 56 °F 78 °F (2001)
Min Temperature 30 °F 39 °F 25 °F (1966)
Degree Days  
Heating Degree Days 30    
Moisture  
Dew Point 27 °F    
Average Humidity 75    
Maximum Humidity 90    
Minimum Humidity 42    
Precipitation  
Precipitation 0.01 in - - ()
Sea Level Pressure  
Sea Level Pressure 30.05 in    
Wind  
Wind Speed 15 mph (NNE)    
Max Wind Speed 22 mph    
Max Gust Speed 30 mph    
Visibility 10 miles    
Events Rain    
Averages and records for this station are not official NWS values.
T = Trace of Precipitation, MM = Missing Value Source: NWS Daily Summary

Daily Weather History Graph

Daily Weather History Graph

Search for Another Location

Airport:

Trip Planner

Search our weather history database for the weather conditions in past years. The results will help you decide how hot, cold, wet, or windy it might be!

Date:

Astronomy

May. 10, 2013 Rise Set
Actual Time 6:22 AM EDT 9:10 PM EDT
Civil Twilight 5:47 AM EDT 9:45 PM EDT
Nautical Twilight 5:03 AM EDT 10:29 PM EDT
Astronomical Twilight 4:11 AM EDT 11:21 PM EDT
Moon 6:46 AM EDT (5/10) 10:00 PM EDT (5/10)
Length of Visible Light 15h 57m
Length of Day
14h 48m
New Moon, 0% of the Moon is Illuminated
May 10
New Moon
May 18
First Quarter
May 25
Full
May 31
Last Quarter
Jun 8
New

Hourly Weather History & Observations

Time (EDT) Temp. Windchill Dew Point Humidity Pressure Visibility Wind Dir Wind Speed Gust Speed Precip Events Conditions
12:17 AM 34.9 °F 25.7 °F 32.2 °F 90% 30.14 in 10.0 mi NE 13.8 mph 21.9 mph N/A Rain Light Rain
12:37 AM 34.7 °F 25.1 °F 32.0 °F 90% 30.14 in 10.0 mi NE 15.0 mph 21.9 mph N/A   Drizzle
12:57 AM 34.7 °F 24.7 °F 32.0 °F 90% 30.14 in 10.0 mi NE 16.1 mph - N/A   Light Drizzle
1:17 AM 34.7 °F 23.4 °F 30.7 °F 85% 30.13 in 10.0 mi NE 20.7 mph 24.2 mph N/A   Overcast
1:37 AM 34.7 °F 24.0 °F 29.8 °F 82% 30.13 in 10.0 mi NE 18.4 mph 26.5 mph N/A   Overcast
1:56 AM 34.2 °F 23.0 °F 29.1 °F 82% 30.12 in 10.0 mi NNE 19.6 mph 29.9 mph N/A   Overcast
2:17 AM 33.8 °F 22.8 °F 29.5 °F 84% 30.12 in 10.0 mi NNE 18.4 mph 25.3 mph N/A   Overcast
2:37 AM 33.8 °F 22.5 °F 30.2 °F 87% 30.11 in 10.0 mi NNE 19.6 mph 28.8 mph N/A   Light Drizzle
2:56 AM 33.4 °F 22.0 °F 29.8 °F 87% 30.11 in 10.0 mi NE 19.6 mph 27.6 mph N/A   Light Drizzle
3:17 AM 33.3 °F 22.5 °F 29.3 °F 85% 30.10 in 10.0 mi NNE 17.3 mph 26.5 mph N/A   Overcast
3:37 AM 32.9 °F 21.6 °F 29.3 °F 87% 30.10 in 10.0 mi NNE 18.4 mph 26.5 mph N/A   Overcast
3:57 AM 32.9 °F 21.3 °F 28.9 °F 85% 30.09 in 10.0 mi NNE 19.6 mph 28.8 mph N/A   Overcast
4:17 AM 32.9 °F 21.6 °F 28.9 °F 85% 30.09 in 10.0 mi NNE 18.4 mph 27.6 mph N/A   Overcast
4:37 AM 32.5 °F 21.5 °F 28.6 °F 85% 30.09 in 10.0 mi NNE 17.3 mph 24.2 mph N/A   Overcast
4:57 AM 32.2 °F 20.0 °F 28.2 °F 85% 30.09 in 10.0 mi NNE 20.7 mph 28.8 mph N/A   Overcast
5:17 AM 32.0 °F 21.2 °F 28.2 °F 86% 30.09 in 10.0 mi NNE 16.1 mph 25.3 mph N/A   Overcast
5:37 AM 32.0 °F 20.1 °F 28.0 °F 85% 30.08 in 10.0 mi NNE 19.6 mph 25.3 mph N/A   Mostly Cloudy
5:57 AM 32.0 °F 19.5 °F 27.9 °F 85% 30.08 in 10.0 mi NNE 21.9 mph 27.6 mph N/A   Mostly Cloudy
6:50 AM 32.0 °F 21.2 °F 28.4 °F 87% 30.08 in 10.0 mi NNE 16.1 mph 26.5 mph N/A   Overcast
7:50 AM 32.0 °F 19.8 °F 28.4 °F 87% 30.08 in 10.0 mi NNE 20.7 mph 27.6 mph N/A   Overcast
8:50 AM 32.0 °F 20.8 °F 28.4 °F 87% 30.08 in 10.0 mi NNE 17.3 mph 27.6 mph N/A   Overcast
9:50 AM 33.8 °F 21.9 °F 26.6 °F 75% 30.09 in 10.0 mi NNE 21.9 mph 26.5 mph N/A   Mostly Cloudy
10:30 AM 35.6 °F 24.8 °F 26.6 °F 70% 30.07 in 10.0 mi NNE 19.6 mph 27.6 mph N/A   Scattered Clouds
10:50 AM 35.6 °F 24.8 °F 26.6 °F 70% 30.07 in 10.0 mi NNE 19.6 mph 25.3 mph N/A   Clear
11:50 AM 37.4 °F 27.5 °F 26.6 °F 65% 30.07 in 10.0 mi NE 18.4 mph 27.6 mph N/A   Clear
12:50 PM 37.4 °F 28.2 °F 24.8 °F 60% 30.07 in 10.0 mi NNE 16.1 mph 21.9 mph N/A   Partly Cloudy
1:50 PM 39.2 °F 30.5 °F 24.8 °F 56% 30.05 in 10.0 mi NNE 16.1 mph - N/A   Clear
2:50 PM 39.2 °F 31.6 °F 24.8 °F 56% 30.04 in 10.0 mi North 12.7 mph 20.7 mph N/A   Clear
4:45 PM 39.2 °F 30.8 °F 19.4 °F 45% 30.03 in 10.0 mi NE 15.0 mph - N/A   Clear
5:55 PM 41.0 °F 34.7 °F 19.4 °F 42% 29.99 in 10.0 mi NNE 10.4 mph - N/A   Clear
6:50 PM 41.0 °F 37.1 °F 19.4 °F 42% 29.97 in 10.0 mi North 5.8 mph - N/A   Clear
7:50 PM 39.2 °F 35.9 °F 19.4 °F 45% 29.97 in 10.0 mi NNE 4.6 mph - N/A   Clear
8:50 PM 37.4 °F 33.8 °F 23.0 °F 56% 29.95 in 10.0 mi NE 4.6 mph - N/A   Clear
9:50 PM 33.8 °F 30.8 °F 24.8 °F 70% 29.94 in 10.0 mi ENE 3.5 mph - N/A   Clear
10:17 PM 33.6 °F - 24.8 °F 70% 29.93 in 10.0 mi Calm Calm - N/A   Clear
10:37 PM 33.6 °F - 25.5 °F 72% 29.93 in 10.0 mi Calm Calm - N/A   Clear
10:57 PM 30.9 °F - 23.7 °F 75% 29.94 in 10.0 mi Calm Calm - N/A   Clear
11:17 PM 31.1 °F - 24.8 °F 77% 29.94 in 10.0 mi Calm Calm - N/A   Clear
11:36 PM 30.7 °F - 24.6 °F 78% 29.94 in 10.0 mi Calm Calm - N/A   Clear
11:57 PM 30.7 °F - 24.3 °F 77% 29.93 in 10.0 mi Calm Calm - N/A   Clear